This demonstration page uses our WeatherBlox Daily Observations layout. Learn more.

Left ArrowRight Arrow

31.84235, -102.49876

Hourly Observations for May 18, 2021

Temp ( °F °C ) Dew Point ( °F °C ) Humidity (%) Winds ( mph kmh ) Pressure ( in mb ) Visibility ( mi km ) Precip ( " mm )
12:53 am 00:53 Clear 71 21.7 58 14.4 63 63 ESE 10 17 29.70 1006 10 16 0.00 0.00
1:53 am 01:53 Clear 69 20.6 59 15 70 70 E 9 15 29.67 1005 10 16 0.00 0.00
2:19 am 02:19 Mostly Cloudy with Nearby Thunderstorms 68 20 59 15 73 73 ESE 17 28 29.69 1005 10 16 0.00 0.00
2:34 am 02:34 Mostly Cloudy 68 20 59 15 73 73 ESE 18 30 29.67 1005 10 16 0.00 0.00
2:53 am 02:53 Mostly Cloudy 68 20 60 15.6 76 76 ESE 14 22 29.65 1004 10 16 0.00 0.00
3:53 am 03:53 Partly Cloudy 61 16.1 52 11.1 72 72 SE 22 35 29.69 1005 10 16 0.00 0.00
4:07 am 04:07 Mostly Cloudy 61 16.1 51 10.6 70 70 SE 13 20 29.72 1007 10 16 0.00 0.00
4:17 am 04:17 Mostly Cloudy 61 16.1 51 10.6 70 70 SE 9 15 29.71 1006 10 16 0.00 0.00
4:53 am 04:53 Clear 61 16.1 52 11.1 72 72 SE 15 24 29.65 1004 10 16 0.00 0.00
5:45 am 05:45 Mostly Cloudy 60 15.6 52 11.1 75 75 ENE 16 26 29.76 1008 10 16 0.00 0.00
5:53 am 05:53 Cloudy 61 16.1 51 10.6 70 70 E 16 26 29.69 1005 10 16 0.00 0.00
6:45 am 06:45 Cloudy 60 15.6 50 10 70 70 ESE 20 31 29.79 1009 10 16 0.00 0.00
6:53 am 06:53 Cloudy 60 15.6 50 10 70 70 ESE 18 30 29.72 1007 10 16 0.00 0.00
7:53 am 07:53 Sunny 59 15 51 10.6 75 75 ESE 15 24 29.75 1007 10 16 0.00 0.00
8:53 am 08:53 Sunny 62 16.7 52 11.1 70 70 ESE 16 26 29.76 1008 10 16 0.00 0.00
9:37 am 09:37 Mostly Cloudy 63 17.2 52 11.1 68 68 ESE 15 24 29.81 1009 10 16 0.00 0.00
9:53 am 09:53 Cloudy 65 18.3 53 11.7 66 66 SE 16 26 29.79 1009 10 16 0.00 0.00
10:36 am 10:36 Mostly Cloudy 66 18.9 53 11.7 63 63 SE 21 33 29.78 1009 10 16 0.00 0.00
10:53 am 10:53 Mostly Cloudy 68 20 54 12.2 61 61 SE 16 26 29.78 1009 10 16 0.00 0.00
11:53 am 11:53 Sunny 72 22.2 54 12.2 53 53 SE 20 31 29.77 1008 10 16 0.00 0.00
12:53 pm 12:53 Sunny 74 23.3 54 12.2 50 50 SSE 16 26 29.75 1008 10 16 0.00 0.00
1:53 pm 13:53 Sunny 78 25.6 54 12.2 43 43 S 12 19 29.72 1006 10 16 0.00 0.00
2:53 pm 14:53 Sunny 82 27.8 44 6.7 26 26 VRB 6 9 29.69 1005 10 16 0.00 0.00
3:53 pm 15:53 Mostly Sunny 84 28.9 32 0 15 15 S 10 17 29.67 1005 10 16 0.00 0.00
4:53 pm 16:53 Mostly Sunny 84 28.9 37 2.8 19 19 VRB 5 7 29.63 1004 10 16 0.00 0.00
5:53 pm 17:53 Sunny 85 29.4 32 0 15 15 SSW 9 15 29.62 1003 10 16 0.00 0.00
6:53 pm 18:53 Sunny 83 28.3 32 0 16 16 S 16 26 29.62 1003 10 16 0.00 0.00
7:53 pm 19:53 Sunny 82 27.8 41 5 23 23 SE 12 19 29.64 1004 10 16 0.00 0.00
8:53 pm 20:53 Clear 79 26.1 47 8.3 32 32 SSE 15 24 29.67 1005 10 16 0.00 0.00
9:53 pm 21:53 Clear 76 24.4 48 8.9 37 37 SSE 8 13 29.68 1005 10 16 0.00 0.00
10:53 pm 22:53 Clear 73 22.8 51 10.6 46 46 E 7 11 29.70 1006 10 16 0.00 0.00
11:53 pm 23:53 Clear 71 21.7 52 11.1 51 51 ENE 17 28 29.71 1006 10 16 0.00 0.00

Powered by AerisWeather